Location: Chuathbaluk
(61.5726°N, 159.2454°W)
Time: 04:33:02
(UTC+00:00)

Transit 2A - Pass Details

Date: 29 November 2020
Orbit: 599 x 960 km, 66.7° (Epoch: 26 January)

Event Time Altitude Azimuth Distance (km) Brightness Sun altitude
Rises 08:55:21 0° 286° (WNW) 3,524 9.9 -47.1°
Enters shadow 08:57:14 - 289° (WNW) 2,831 9.3 -47.2°
Reaches altitude 10° 08:58:02 10° 291° (WNW) 2,536 - -47.3°
Maximum altitude 09:03:46 52° 8° (N) 1,010 - -47.6°
Drops below altitude 10° 09:08:56 10° 85° (E) 2,294 - -47.9°
Sets 09:11:16 0° 91° (E) 3,161 - -48.0°
